When you browse on this site, cookies collect data to enhance your experience and personalize the content and advertising you see.
Visit our Privacy Policy to learn more. By continuing to use the site, you agree to this use of cookies and data.
  • In Latvia
  • List of Countries
  • For 7 days
  • Water Temperature
  • Satellite Maps
  • Weather Map
  • Weather Widgets
  • user-avatar
    Login

    Hourly Weather Sololá

    Today, 26 April, Friday

    Time Temperature Precipitation Wind Pressure Humidity
    00:00 +15°C° 0 mm 1 mps 594 mmHg 83%
    01:00 +15°C° 0 mm 1 mps 594 mmHg 82%
    02:00 +14°C° 0 mm 1 mps 594 mmHg 82%
    03:00 +14°C° 0 mm 1 mps 593 mmHg 81%
    04:00 +14°C° 0 mm 1 mps 593 mmHg 82%
    05:00 +14°C° 0 mm 1 mps 593 mmHg 83%
    06:00 +14°C° 0 mm 1 mps 593 mmHg 84%
    07:00 +16°C° 0 mm 1 mps 595 mmHg 75%
    08:00 +20°C° 0 mm 1 mps 596 mmHg 65%
    09:00 +23°C° 0 mm 1 mps 598 mmHg 56%
    10:00 +24°C° 0 mm 1 mps 598 mmHg 54%
    11:00 +24°C° 0 mm 2 mps 598 mmHg 52%
    12:00 +24°C° 0 mm 2 mps 598 mmHg 51%
    13:00 +25°C° 0.2 mm 2 mps 597 mmHg 50%
    14:00 +25°C° 0.2 mm 3 mps 597 mmHg 49%
    15:00 +25°C° 0.2 mm 3 mps 597 mmHg 48%
    16:00 +22°C° 0.1 mm 3 mps 596 mmHg 54%
    17:00 +21°C° 0.1 mm 2 mps 595 mmHg 60%
    18:00 +19°C° 0.1 mm 2 mps 595 mmHg 66%
    19:00 +18°C° 0 mm 2 mps 595 mmHg 69%
    20:00 +17°C° 0 mm 2 mps 595 mmHg 73%
    21:00 +15°C° 0 mm 2 mps 595 mmHg 77%
    22:00 +15°C° 0 mm 2 mps 594 mmHg 75%
    23:00 +15°C° 0 mm 2 mps 594 mmHg 73%

    Tomorrow, 27 April, Saturday

    Time Temperature Precipitation Wind Pressure Humidity
    00:00 +15°C° 0 mm 2 mps 594 mmHg 72%
    01:00 +15°C° 0 mm 2 mps 594 mmHg 75%
    02:00 +14°C° 0 mm 2 mps 593 mmHg 78%
    03:00 +14°C° 0 mm 2 mps 593 mmHg 82%
    04:00 +14°C° 0 mm 2 mps 593 mmHg 83%
    05:00 +14°C° 0 mm 2 mps 593 mmHg 84%
    06:00 +14°C° 0 mm 1 mps 593 mmHg 85%
    07:00 +18°C° 0 mm 1 mps 595 mmHg 74%
    08:00 +21°C° 0 mm 1 mps 596 mmHg 63%
    09:00 +24°C° 0 mm 1 mps 598 mmHg 52%
    10:00 +23°C° 0.1 mm 1 mps 598 mmHg 54%
    11:00 +23°C° 0.1 mm 1 mps 597 mmHg 57%
    12:00 +23°C° 0.1 mm 2 mps 597 mmHg 59%
    13:00 +23°C° 0.6 mm 2 mps 596 mmHg 62%
    14:00 +23°C° 0.6 mm 2 mps 595 mmHg 64%
    15:00 +23°C° 0.6 mm 2 mps 595 mmHg 66%
    16:00 +21°C° 0.8 mm 2 mps 594 mmHg 71%
    17:00 +21°C° 0.8 mm 1 mps 594 mmHg 75%
    18:00 +20°C° 0.8 mm 1 mps 594 mmHg 80%
    19:00 +19°C° 0.3 mm 1 mps 594 mmHg 83%
    20:00 +18°C° 0.3 mm 1 mps 594 mmHg 87%
    21:00 +16°C° 0.3 mm 1 mps 594 mmHg 90%
    22:00 +16°C° 0 mm 1 mps 594 mmHg 91%
    23:00 +15°C° 0 mm 1 mps 594 mmHg 91%

    Day after tomorrow, 28 April, Sunday

    Time Temperature Precipitation Wind Pressure Humidity
    00:00 +15°C° 0 mm 1 mps 594 mmHg 92%
    01:00 +14°C° 0 mm 1 mps 593 mmHg 91%
    02:00 +14°C° 0 mm 1 mps 592 mmHg 91%
    03:00 +14°C° 0 mm 1 mps 592 mmHg 90%
    04:00 +14°C° 0 mm 1 mps 592 mmHg 89%
    05:00 +14°C° 0 mm 1 mps 592 mmHg 87%
    06:00 +14°C° 0 mm 1 mps 592 mmHg 85%
    07:00 +18°C° 0 mm 1 mps 594 mmHg 75%
    08:00 +21°C° 0 mm 1 mps 596 mmHg 65%
    09:00 +24°C° 0 mm 1 mps 598 mmHg 55%
    10:00 +24°C° 0.1 mm 1 mps 598 mmHg 53%
    11:00 +25°C° 0.1 mm 1 mps 598 mmHg 51%
    12:00 +25°C° 0.1 mm 2 mps 597 mmHg 49%
    13:00 +25°C° 0.7 mm 2 mps 597 mmHg 51%
    14:00 +25°C° 0.7 mm 2 mps 596 mmHg 53%
    15:00 +25°C° 0.7 mm 2 mps 595 mmHg 54%
    16:00 +23°C° 0.5 mm 2 mps 594 mmHg 61%
    17:00 +21°C° 0.5 mm 2 mps 594 mmHg 67%
    18:00 +20°C° 0.5 mm 1 mps 594 mmHg 73%
    19:00 +19°C° 0.1 mm 1 mps 594 mmHg 78%
    20:00 +18°C° 0.1 mm 1 mps 594 mmHg 82%
    21:00 +16°C° 0.1 mm 1 mps 594 mmHg 86%
    22:00 +16°C° 0 mm 1 mps 594 mmHg 86%
    23:00 +15°C° 0 mm 1 mps 594 mmHg 86%

    29 April, Monday

    Time Temperature Precipitation Wind Pressure Humidity
    00:00 +15°C° 0 mm 1 mps 593 mmHg 86%
    01:00 +14°C° 0 mm 1 mps 593 mmHg 85%
    02:00 +14°C° 0 mm 1 mps 592 mmHg 85%
    03:00 +14°C° 0 mm 1 mps 592 mmHg 84%
    04:00 +14°C° 0 mm 1 mps 592 mmHg 83%
    05:00 +14°C° 0 mm 1 mps 592 mmHg 81%
    06:00 +14°C° 0 mm 1 mps 593 mmHg 80%
    07:00 +18°C° 0 mm 1 mps 594 mmHg 69%
    08:00 +21°C° 0 mm 1 mps 596 mmHg 58%
    09:00 +24°C° 0 mm 1 mps 598 mmHg 48%
    10:00 +25°C° 0 mm 1 mps 598 mmHg 44%
    11:00 +26°C° 0 mm 2 mps 598 mmHg 40%
    12:00 +27°C° 0 mm 2 mps 598 mmHg 37%
    13:00 +26°C° 0.1 mm 2 mps 597 mmHg 38%
    14:00 +26°C° 0.1 mm 2 mps 596 mmHg 40%
    15:00 +26°C° 0.1 mm 3 mps 596 mmHg 41%
    16:00 +24°C° 0.2 mm 2 mps 595 mmHg 49%
    17:00 +21°C° 0.2 mm 2 mps 595 mmHg 56%
    18:00 +21°C° 0.2 mm 1 mps 594 mmHg 63%
    19:00 +19°C° 0 mm 1 mps 594 mmHg 66%
    20:00 +18°C° 0 mm 1 mps 594 mmHg 69%
    21:00 +16°C° 0 mm 1 mps 594 mmHg 71%
    22:00 +15°C° 0 mm 1 mps 594 mmHg 70%
    23:00 +15°C° 0 mm 1 mps 594 mmHg 69%

    30 April, Tuesday

    Time Temperature Precipitation Wind Pressure Humidity
    00:00 +14°C° 0 mm 1 mps 594 mmHg 68%
    01:00 +14°C° 0 mm 1 mps 593 mmHg 68%
    02:00 +14°C° 0 mm 1 mps 593 mmHg 69%
    03:00 +14°C° 0 mm 2 mps 592 mmHg 69%
    04:00 +14°C° 0 mm 1 mps 593 mmHg 72%
    05:00 +14°C° 0 mm 1 mps 593 mmHg 75%
    06:00 +13°C° 0 mm 1 mps 593 mmHg 78%
    07:00 +18°C° 0 mm 1 mps 595 mmHg 67%
    08:00 +21°C° 0 mm 1 mps 596 mmHg 56%
    09:00 +24°C° 0 mm 1 mps 598 mmHg 45%
    10:00 +25°C° 0 mm 1 mps 598 mmHg 42%
    11:00 +26°C° 0 mm 2 mps 598 mmHg 39%
    12:00 +27°C° 0 mm 2 mps 598 mmHg 35%
    13:00 +26°C° 0.1 mm 2 mps 597 mmHg 39%
    14:00 +26°C° 0.1 mm 2 mps 597 mmHg 43%
    15:00 +25°C° 0.1 mm 2 mps 596 mmHg 47%
    16:00 +24°C° 0.8 mm 2 mps 595 mmHg 55%
    17:00 +21°C° 0.8 mm 2 mps 595 mmHg 64%
    18:00 +20°C° 0.8 mm 1 mps 594 mmHg 72%
    19:00 +19°C° 0.1 mm 1 mps 594 mmHg 76%
    20:00 +18°C° 0.1 mm 1 mps 595 mmHg 79%
    21:00 +16°C° 0.1 mm 1 mps 595 mmHg 83%
    22:00 +16°C° 0 mm 1 mps 594 mmHg 83%
    23:00 +15°C° 0 mm 1 mps 594 mmHg 84%

    1 May, Wednesday

    Time Temperature Precipitation Wind Pressure Humidity
    00:00 +15°C° 0 mm 1 mps 594 mmHg 84%
    01:00 +15°C° 0 mm 1 mps 593 mmHg 85%
    02:00 +15°C° 0 mm 1 mps 593 mmHg 86%
    03:00 +14°C° 0 mm 1 mps 593 mmHg 87%
    04:00 +14°C° 0 mm 1 mps 593 mmHg 87%
    05:00 +14°C° 0 mm 1 mps 593 mmHg 87%
    06:00 +14°C° 0 mm 1 mps 593 mmHg 87%
    07:00 +18°C° 0 mm 1 mps 595 mmHg 76%
    08:00 +21°C° 0 mm 1 mps 596 mmHg 65%
    09:00 +23°C° 0 mm 1 mps 598 mmHg 54%
    10:00 +24°C° 0.2 mm 1 mps 598 mmHg 54%
    11:00 +24°C° 0.2 mm 2 mps 597 mmHg 53%
    12:00 +24°C° 0.2 mm 2 mps 597 mmHg 52%
    13:00 +24°C° 0.8 mm 2 mps 596 mmHg 54%
    14:00 +24°C° 0.8 mm 2 mps 596 mmHg 55%
    15:00 +24°C° 0.8 mm 2 mps 595 mmHg 57%
    16:00 +21°C° 1 mm 2 mps 595 mmHg 63%
    17:00 +20°C° 1 mm 2 mps 595 mmHg 69%
    18:00 +20°C° 1 mm 1 mps 594 mmHg 75%
    19:00 +19°C° 0.1 mm 1 mps 594 mmHg 78%
    20:00 +18°C° 0.1 mm 1 mps 594 mmHg 81%
    21:00 +16°C° 0.1 mm 1 mps 594 mmHg 84%
    22:00 +16°C° 0 mm 1 mps 594 mmHg 83%
    23:00 +15°C° 0 mm 1 mps 594 mmHg 83%
    Show more